Regional Weather Roundup
Issued by NWS

Home | Current Version | Previous Version | Graphics & Text | Print | Product List | Glossary On
Versions: 1 2 3 4 5 6 7 8 9 10 11 12 13 14 15 16 17 18 19 20 21 22 23 24 25 26 27 28 29 30 31 32 33 34 35 36 37 38 39 40 41 42 43 44 45 46 47 48 49 50
000
ASUS43 KIND 190709
RWRIN

WEATHER ROUNDUP FOR INDIANA
NATIONAL WEATHER SERVICE INDIANAPOLIS IN
200 AM EST FRI JAN 19 2018

NOTE: "FAIR" INDICATES FEW OR NO CLOUDS BELOW 12,000 FEET WITH NO
SIGNIFICANT WEATHER AND/OR OBSTRUCTIONS TO VISIBILITY.

* - STATION DOES NOT REPORT WEATHER SUCH AS PRECIPITATION OR FOG.

+ - STATION NOT QUALITY CONTROLLED BY THE NATIONAL WEATHER SERVICE.
    USE DATA WITH CAUTION...ESPECIALLY DEWPOINT AND RELATIVE
    HUMIDITY OBSERVATIONS.

INZ001>003-010>013-019-020-190800-
NORTHWEST INDIANA

CITY           SKY/WX    TMP DP  RH WIND       PRES   REMARKS
GARY /AIRPORT/ FAIR      29  19  67 SW9G18    29.98F WCI  20
KNOX *+        FAIR      27  18  69 SW15      30.02S WCI  15
LA PORTE +     FAIR      22  16  76 SW10      30.00F WCI  12
MICHIGAN CITY+ FAIR      27  18  69 S9        29.99F WCI  17
MONTICELLO +   FAIR      22  13  65 SW13      30.05F WCI  10
RENSSELAER +   FAIR      27  16  63 SW18      30.04F WCI  13
VALPARAISO     FAIR      24  17  74 S10       30.00F WCI  14

$$

LMZ046-743>745-190800-
SOUTHERN LAKE MICHIGAN

STATION/POSITION TIME  TEMP    WIND        PRES    WAVE
                       AIR SEA DIR/SP/G            HT
                 (UTC) (F)     (DEG/KT/KT) (MB)    (FT)
BURNS HARBOR     0640   28     200/ 14/ 18 1015.9S
MICHIGAN CITY    0640   29     190/ 15/ 17   N/A

$$

INZ004-005-014>016-021>024-190800-
NORTH CENTRAL INDIANA

CITY           SKY/WX    TMP DP  RH WIND       PRES   REMARKS
GOSHEN         FAIR      23  14  68 SW14      30.01F WCI  11
LOGANSPORT +   FAIR      23  14  68 SW15      30.07F WCI  10
PERU/GRISSOM   FAIR      23  15  70 SW16      30.05F WCI  10
ROCHESTER +    FAIR      27  18  69 SW13      30.04F WCI  16
SOUTH BEND     FAIR      23  15  71 SW14      29.99F WCI  11
WARSAW +       FAIR      25  14  63 SW6       30.02F WCI  18

$$

INZ006>009-017-018-025>027-190800-
NORTHEAST INDIANA

CITY           SKY/WX    TMP DP  RH WIND       PRES   REMARKS
AUBURN +       FAIR      25  14  63 SW10      30.03S WCI  15
FORT WAYNE     FAIR      25  14  63 SW20      30.06S WCI  11
HUNTINGTON +   FAIR      24  12  60 SW12G17   30.05F WCI  13
KENDALLVILLE + FAIR      25  15  67 SW14G20   30.00F WCI  13

$$

INZ028-029-035-036-043>045-051>053-190800-
WEST CENTRAL INDIANA

CITY           SKY/WX    TMP DP  RH WIND       PRES   REMARKS
CRAWFORDSVL +  FAIR      20  13  73 MISG        N/A
GREENCASTLE +  FAIR      23  12  63 SW9       30.13F WCI  13
LAFAYETTE      FAIR      23  13  65 SW8       30.09F WCI  14
TERRE HAUTE    FAIR      18   9  68 S8        30.16F WCI   8

$$

INZ030>032-037>040-046>048-054>057-064-065-190800-
CENTRAL INDIANA

CITY           SKY/WX    TMP DP  RH WIND       PRES   REMARKS
FISHERS *+     FAIR      23  16  74 SW9       30.12  WCI  13
FRANKFORT +    FAIR      26  16  66 SW15      30.10F WCI  13
GREENWOOD *+   FAIR      25  12  58 SW8       30.14F WCI  16
INDIANAPOLIS   FAIR      24  13  62 SW15      30.13F WCI  11
-EAGLE CREEK   FAIR      23  12  62 SW8       30.12F WCI  14
MARION +       LGT SNOW  23  14  68 SW15      30.09S WCI  10
MT COMFORT *+  FAIR      21  14  73 SW8       30.12F WCI  12
SHELBYVILLE    FAIR      20   9  62 S9        30.14F WCI   9
ZIONSVILLE +   FAIR      22  12  65 SW16      30.11S WCI   8

$$

INZ033-034-041-042-049-050-058-059-190800-
EAST CENTRAL INDIANA

CITY           SKY/WX    TMP DP  RH WIND       PRES   REMARKS
MUNCIE         FAIR      24  11  57 SW13      30.09S WCI  12
RICHMOND +     FAIR      19  12  73 SW10      30.12S WCI   8

$$

INZ060-061-067>069-081>083-085>088-190800-
SOUTHWEST INDIANA

CITY           SKY/WX    TMP DP  RH WIND       PRES   REMARKS
EVANSVILLE     FAIR      21  13  71 SW10      30.24F WCI  10
HUNTINGBURG +  FAIR      20  11  68 S7        30.24S WCI  11
WASHINGTON +   FAIR      23  10  59 SW7       30.21S WCI  14

$$

INZ062-063-066-070>080-084-089>092-190800-
SOUTH CENTRAL AND SOUTHEAST INDIANA

CITY           SKY/WX    TMP DP  RH WIND       PRES   REMARKS
BATESVILLE *+    N/A    N/A N/A N/A MISG        N/A
BEDFORD +      FAIR      23  10  58 SW7       30.19F WCI  15
BLOOMINGTON    FAIR      24  11  57 SW13      30.17S WCI  12
FRENCH LICK *+ FAIR      23   9  54 SW8       30.21S WCI  14
MADISON *+     FAIR      21  12  68 S7        30.22F WCI  13
NORTH VERNON + FAIR      19  10  68 S8        30.19F WCI   9
SEYMOUR +      FAIR      23   9  54 S6        30.20F WCI  16

$$





USA.gov is the U.S. government's official web portal to all federal, state and local government web resources and services.